Tracking 25963 objects as of 13-Aug-2022
HD Live streaming from Space Station
objects crossing your sky now

STARLINK-4279

Track STARLINK-4279 now!
10-day predictions
STARLINK-4279 is classified as:


NORAD ID: 53018
Int'l Code: 2022-076AJ
Perigee: 355.5 km
Apogee: 358.0 km
Inclination: 53.2 °
Period: 91.5 minutes
Semi major axis: 6727 km
RCS: Unknown
Launch date: July 7, 2022
Source: United States (US)
Launch site: AIR FORCE EASTERN TEST RANGE (AFETR)
aabbcc
Your satellite tracking list
Your tracking list is empty




NASA's NSSDC Master Catalog

Two Line Element Set (TLE):
1 53018U 22076AJ  22224.83335648  .00018878  00000-0  13837-3 0  9993
2 53018  53.2183 200.0008 0001852  21.7917 240.6130 15.73242938  6213
Source of the keplerian elements: AFSPC